| time (UTC) | temp C | wind direction | speed KPH | gust KPH | rain 1hr cm | rain 24hr cm | rain mn cm | humidity % | barometer mb |
| 20260505163514 | 23 | 229 | 3.2 | 12.9 | 0.00 | 0.00 | 0.00 | 52 | 1008.6 |
| 20260505163030 | 23 | 300 | 3.2 | 11.3 | 0.00 | 0.00 | 0.00 | 52 | 1008.5 |
| 20260505162513 | 23 | 266 | 4.8 | 11.3 | 0.00 | 0.00 | 0.00 | 51 | 1008.7 |
| 20260505162012 | 22 | 229 | 3.2 | 19.3 | 0.00 | 0.00 | 0.00 | 52 | 1008.6 |
| 20260505161530 | 22 | 217 | 3.2 | 19.3 | 0.00 | 0.00 | 0.00 | 51 | 1008.8 |
| 20260505161014 | 23 | 257 | 4.8 | 19.3 | 0.00 | 0.00 | 0.00 | 52 | 1008.8 |
| 20260505160513 | 22 | 246 | 6.4 | 19.3 | 0.00 | 0.00 | 0.00 | 52 | 1008.9 |
| 20260505153042 | 21 | 265 | 4.8 | 17.7 | 0.00 | 0.00 | 0.00 | 57 | 1008.8 |
| 20260505152516 | 21 | 144 | 6.4 | 17.7 | 0.00 | 0.00 | 0.00 | 58 | 1008.8 |
| 20260505152013 | 21 | 103 | 1.6 | 16.1 | 0.00 | 0.00 | 0.00 | 61 | 1008.8 |
| 20260505151537 | 21 | 252 | 4.8 | 16.1 | 0.00 | 0.00 | 0.00 | 60 | 1008.7 |
| 20260505151012 | 20 | 89 | 3.2 | 11.3 | 0.00 | 0.00 | 0.00 | 62 | 1008.7 |
| 20260505150511 | 20 | 241 | 4.8 | 11.3 | 0.00 | 0.00 | 0.00 | 63 | 1008.6 |
| 20260505140514 | 18 | 175 | 4.8 | 11.3 | 0.00 | 0.00 | 0.00 | 68 | 1008.2 |
| 20260505125014 | 16 | 0 | 0.0 | 4.8 | 0.00 | 0.00 | 0.00 | 77 | 1008.1 |
| 20260505124530 | 16 | 207 | 0.0 | 8.0 | 0.00 | 0.00 | 0.00 | 77 | 1008.1 |
| 20260505124014 | 15 | 0 | 0.0 | 9.7 | 0.00 | 0.00 | 0.00 | 76 | 1008.0 |
| 20260505123514 | 15 | 198 | 1.6 | 9.7 | 0.00 | 0.00 | 0.00 | 76 | 1008.1 |
| 20260505123050 | 15 | 204 | 1.6 | 11.3 | 0.00 | 0.00 | 0.00 | 76 | 1008.0 |
| 20260505122511 | 15 | 162 | 1.6 | 14.5 | 0.00 | 0.00 | 0.00 | 76 | 1007.9 |
| 20260505122011 | 15 | 207 | 3.2 | 14.5 | 0.00 | 0.00 | 0.00 | 76 | 1007.7 |
| 20260505121528 | 15 | 195 | 3.2 | 14.5 | 0.00 | 0.00 | 0.00 | 76 | 1007.4 |
| 20260505121009 | 15 | 94 | 1.6 | 11.3 | 0.00 | 0.00 | 0.00 | 77 | 1007.4 |
| 20260505120509 | 15 | 150 | 0.0 | 8.0 | 0.00 | 0.00 | 0.00 | 77 | 1007.3 |
| 20260505120030 | 15 | 0 | 0.0 | 8.0 | 0.00 | 0.00 | 0.00 | 76 | 1007.5 |
| 20260505115513 | 15 | 0 | 0.0 | 6.4 | 0.00 | 0.00 | 0.00 | 76 | 1007.5 |
| 20260505115011 | 15 | 0 | 0.0 | 6.4 | 0.00 | 0.00 | 0.00 | 75 | 1007.4 |
| 20260505114527 | 15 | 198 | 0.0 | 6.4 | 0.00 | 0.00 | 0.00 | 75 | 1007.6 |
| 20260505114013 | 16 | 0 | 0.0 | 8.0 | 0.00 | 0.00 | 0.00 | 74 | 1007.5 |
| 20260505113510 | 16 | 0 | 0.0 | 8.0 | 0.00 | 0.00 | 0.00 | 74 | 1007.5 |
| 20260505113035 | 16 | 290 | 0.0 | 6.4 | 0.00 | 0.00 | 0.00 | 74 | 1007.7 |
| 20260505112509 | 16 | 0 | 0.0 | 6.4 | 0.00 | 0.00 | 0.00 | 73 | 1007.7 |
| 20260505112015 | 16 | 240 | 1.6 | 6.4 | 0.00 | 0.00 | 0.00 | 73 | 1007.7 |
| 20260505111549 | 16 | 252 | 1.6 | 6.4 | 0.00 | 0.00 | 0.00 | 72 | 1007.8 |
| 20260505111015 | 16 | 243 | 1.6 | 9.7 | 0.00 | 0.00 | 0.00 | 72 | 1007.8 |
| 20260505110513 | 16 | 0 | 0.0 | 9.7 | 0.00 | 0.00 | 0.00 | 72 | 1007.7 |
| 20260505102016 | 16 | 0 | 0.0 | 0.0 | 0.00 | 0.00 | 0.00 | 68 | 1007.5 |
| 20260505101533 | 16 | 0 | 0.0 | 0.0 | 0.00 | 0.00 | 0.00 | 68 | 1007.5 |
| 20260505101012 | 16 | 0 | 0.0 | 0.0 | 0.00 | 0.00 | 0.00 | 68 | 1007.5 |
| 20260505100510 | 16 | 0 | 0.0 | 0.0 | 0.00 | 0.00 | 0.00 | 68 | 1007.6 |
| 20260505100034 | 16 | 0 | 0.0 | 0.0 | 0.00 | 0.00 | 0.00 | 67 | 1007.6 |
| 20260505095511 | 16 | 0 | 0.0 | 3.2 | 0.00 | 0.00 | 0.00 | 67 | 1007.5 |
| 20260505095010 | 16 | 0 | 0.0 | 3.2 | 0.00 | 0.00 | 0.00 | 66 | 1007.4 |
| 20260505094530 | 17 | 0 | 0.0 | 3.2 | 0.00 | 0.00 | 0.00 | 66 | 1007.4 |
| 20260505094015 | 17 | 0 | 0.0 | 4.8 | 0.00 | 0.00 | 0.00 | 65 | 1007.5 |
| 20260505093512 | 17 | 0 | 0.0 | 8.0 | 0.00 | 0.00 | 0.00 | 65 | 1007.4 |
| 20260505093031 | 17 | 250 | 1.6 | 8.0 | 0.00 | 0.00 | 0.00 | 65 | 1007.1 |
| 20260505092513 | 17 | 233 | 3.2 | 8.0 | 0.00 | 0.00 | 0.00 | 64 | 1007.1 |
| 20260505092014 | 17 | 241 | 1.6 | 8.0 | 0.00 | 0.00 | 0.00 | 64 | 1007.1 |
| 20260505091534 | 17 | 247 | 1.6 | 6.4 | 0.00 | 0.00 | 0.00 | 64 | 1007.1 |
| 20260505091011 | 17 | 0 | 1.6 | 6.4 | 0.00 | 0.00 | 0.00 | 63 | 1007.0 |
| 20260505090512 | 17 | 243 | 3.2 | 6.4 | 0.00 | 0.00 | 0.00 | 63 | 1007.1 |
| 20260505090037 | 17 | 250 | 3.2 | 8.0 | 0.00 | 0.00 | 0.00 | 62 | 1007.1 |
| 20260505085512 | 17 | 246 | 3.2 | 8.0 | 0.00 | 0.00 | 0.00 | 62 | 1007.0 |
| 20260505085015 | 17 | 254 | 3.2 | 12.9 | 0.00 | 0.00 | 0.00 | 62 | 1006.9 |
| 20260505084531 | 17 | 211 | 3.2 | 12.9 | 0.00 | 0.00 | 0.00 | 63 | 1006.8 |
| 20260505084010 | 17 | 273 | 3.2 | 12.9 | 0.00 | 0.00 | 0.00 | 63 | 1006.7 |
| 20260505083511 | 17 | 245 | 1.6 | 4.8 | 0.00 | 0.00 | 0.00 | 63 | 1006.7 |
| 20260505083040 | 17 | 255 | 0.0 | 9.7 | 0.00 | 0.00 | 0.00 | 63 | 1006.6 |
| 20260505082511 | 17 | 281 | 1.6 | 9.7 | 0.00 | 0.00 | 0.00 | 63 | 1006.4 |
| 20260505082012 | 17 | 217 | 1.6 | 19.3 | 0.00 | 0.00 | 0.00 | 63 | 1006.4 |
| 20260505081533 | 17 | 222 | 1.6 | 19.3 | 0.00 | 0.00 | 0.00 | 62 | 1006.3 |
| 20260505081018 | 17 | 238 | 4.8 | 19.3 | 0.00 | 0.00 | 0.00 | 62 | 1006.2 |
| 20260505080513 | 17 | 70 | 1.6 | 12.9 | 0.00 | 0.00 | 0.00 | 63 | 1006.0 |
| 20260505080036 | 17 | 272 | 3.2 | 12.9 | 0.00 | 0.00 | 0.00 | 62 | 1006.0 |
| 20260505075511 | 17 | 290 | 3.2 | 12.9 | 0.00 | 0.00 | 0.00 | 62 | 1005.9 |
| 20260505075016 | 18 | 222 | 3.2 | 9.7 | 0.00 | 0.00 | 0.00 | 62 | 1005.9 |
| 20260505074527 | 18 | 276 | 3.2 | 14.5 | 0.00 | 0.00 | 0.00 | 62 | 1006.0 |
| 20260505074011 | 18 | 138 | 4.8 | 14.5 | 0.00 | 0.00 | 0.00 | 62 | 1006.0 |
| 20260505073512 | 18 | 125 | 3.2 | 16.1 | 0.00 | 0.00 | 0.00 | 62 | 1006.0 |
| 20260505073032 | 18 | 239 | 1.6 | 16.1 | 0.00 | 0.00 | 0.00 | 62 | 1006.0 |
| 20260505072510 | 18 | 243 | 1.6 | 16.1 | 0.00 | 0.00 | 0.00 | 62 | 1006.0 |
| 20260505072011 | 18 | 147 | 3.2 | 17.7 | 0.00 | 0.00 | 0.00 | 61 | 1005.8 |
| 20260505071535 | 18 | 238 | 4.8 | 19.3 | 0.00 | 0.00 | 0.00 | 61 | 1005.8 |
| 20260505071016 | 18 | 252 | 3.2 | 19.3 | 0.00 | 0.00 | 0.00 | 61 | 1005.9 |
| 20260505070511 | 18 | 225 | 3.2 | 16.1 | 0.00 | 0.00 | 0.00 | 62 | 1005.9 |
| 20260505070033 | 18 | 176 | 3.2 | 16.1 | 0.00 | 0.00 | 0.00 | 62 | 1005.9 |
| 20260505065527 | 18 | 240 | 1.6 | 17.7 | 0.00 | 0.00 | 0.00 | 62 | 1005.8 |
| 20260505065012 | 18 | 219 | 3.2 | 17.7 | 0.00 | 0.00 | 0.00 | 62 | 1005.9 |
| 20260505064542 | 17 | 262 | 1.6 | 12.9 | 0.00 | 0.00 | 0.00 | 63 | 1005.9 |
| 20260505064013 | 18 | 200 | 3.2 | 14.5 | 0.00 | 0.00 | 0.00 | 63 | 1005.8 |
| 20260505063513 | 17 | 212 | 3.2 | 14.5 | 0.00 | 0.00 | 0.00 | 63 | 1005.8 |
| 20260505063031 | 17 | 221 | 3.2 | 11.3 | 0.00 | 0.00 | 0.00 | 63 | 1005.6 |
| 20260505062513 | 17 | 164 | 4.8 | 11.3 | 0.00 | 0.00 | 0.00 | 64 | 1005.7 |
| 20260505062012 | 17 | 212 | 3.2 | 11.3 | 0.00 | 0.00 | 0.00 | 64 | 1005.8 |
| 20260505061538 | 17 | 265 | 1.6 | 11.3 | 0.00 | 0.00 | 0.00 | 64 | 1005.7 |
| 20260505061011 | 17 | 212 | 3.2 | 11.3 | 0.00 | 0.00 | 0.00 | 64 | 1005.7 |
| 20260505060513 | 17 | 119 | 3.2 | 16.1 | 0.00 | 0.00 | 0.00 | 64 | 1005.8 |
| 20260505060031 | 17 | 137 | 3.2 | 16.1 | 0.00 | 0.00 | 0.00 | 64 | 1005.8 |
| 20260505055513 | 17 | 225 | 3.2 | 11.3 | 0.00 | 0.00 | 0.00 | 64 | 1005.8 |
| 20260505055011 | 18 | 176 | 1.6 | 16.1 | 0.00 | 0.00 | 0.00 | 63 | 1005.9 |
| 20260505054530 | 18 | 208 | 3.2 | 16.1 | 0.00 | 0.00 | 0.00 | 63 | 1005.9 |
| 20260505054017 | 18 | 113 | 1.6 | 14.5 | 0.00 | 0.00 | 0.00 | 63 | 1006.1 |
| 20260505053517 | 18 | 226 | 1.6 | 14.5 | 0.00 | 0.00 | 0.00 | 63 | 1006.1 |
| 20260505053030 | 18 | 231 | 3.2 | 14.5 | 0.00 | 0.00 | 0.00 | 62 | 1006.1 |
| 20260505052513 | 18 | 247 | 4.8 | 14.5 | 0.00 | 0.00 | 0.00 | 62 | 1006.0 |
| 20260505052010 | 18 | 212 | 1.6 | 14.5 | 0.00 | 0.00 | 0.00 | 62 | 1006.1 |
| 20260505051532 | 18 | 172 | 3.2 | 14.5 | 0.00 | 0.00 | 0.00 | 62 | 1006.3 |
| 20260505051013 | 18 | 161 | 3.2 | 17.7 | 0.00 | 0.00 | 0.00 | 62 | 1006.3 |
| 20260505050516 | 18 | 200 | 3.2 | 17.7 | 0.00 | 0.00 | 0.00 | 62 | 1006.4 |
| 20260505041532 | 18 | 0 | 1.6 | 8.0 | 0.00 | 0.00 | 0.00 | 61 | 1006.4 |
| 20260505041012 | 18 | 254 | 0.0 | 8.0 | 0.00 | 0.00 | 0.00 | 61 | 1006.3 |
| 20260505040511 | 18 | 214 | 0.0 | 6.4 | 0.00 | 0.00 | 0.00 | 61 | 1006.4 |
| 20260505040028 | 18 | 0 | 0.0 | 6.4 | 0.00 | 0.00 | 0.00 | 61 | 1006.4 |
| 20260505035512 | 18 | 0 | 0.0 | 6.4 | 0.00 | 0.00 | 0.00 | 61 | 1006.2 |
| 20260505035017 | 18 | 210 | 1.6 | 6.4 | 0.00 | 0.00 | 0.00 | 61 | 1006.2 |
| 20260505034533 | 18 | 255 | 1.6 | 9.7 | 0.00 | 0.00 | 0.00 | 61 | 1006.3 |
| 20260505034017 | 18 | 0 | 0.0 | 9.7 | 0.00 | 0.00 | 0.00 | 62 | 1006.4 |
| 20260505033515 | 18 | 213 | 1.6 | 8.0 | 0.00 | 0.00 | 0.00 | 62 | 1006.2 |
| 20260505033035 | 18 | 0 | 0.0 | 8.0 | 0.00 | 0.00 | 0.00 | 62 | 1006.2 |
| 20260505032512 | 18 | 202 | 1.6 | 8.0 | 0.00 | 0.00 | 0.00 | 62 | 1006.2 |
| 20260505032014 | 18 | 212 | 1.6 | 8.0 | 0.00 | 0.00 | 0.00 | 63 | 1006.2 |
| 20260505031530 | 18 | 207 | 0.0 | 11.3 | 0.00 | 0.00 | 0.00 | 63 | 1006.2 |
| 20260505031011 | 18 | 212 | 0.0 | 11.3 | 0.00 | 0.00 | 0.00 | 63 | 1006.3 |
| 20260505030511 | 18 | 143 | 1.6 | 9.7 | 0.00 | 0.00 | 0.00 | 63 | 1006.3 |
| 20260505030030 | 18 | 203 | 1.6 | 6.4 | 0.00 | 0.00 | 0.00 | 63 | 1006.1 |
| 20260505025511 | 18 | 212 | 1.6 | 6.4 | 0.00 | 0.00 | 0.00 | 63 | 1006.1 |
| 20260505025011 | 18 | 210 | 1.6 | 6.4 | 0.00 | 0.00 | 0.00 | 63 | 1006.2 |
| 20260505024539 | 18 | 186 | 1.6 | 4.8 | 0.00 | 0.00 | 0.00 | 63 | 1006.0 |
| 20260505024012 | 18 | 106 | 1.6 | 6.4 | 0.00 | 0.00 | 0.00 | 63 | 1006.1 |
| 20260505023512 | 18 | 232 | 1.6 | 6.4 | 0.00 | 0.00 | 0.00 | 63 | 1006.0 |
| 20260505023029 | 18 | 210 | 0.0 | 4.8 | 0.00 | 0.00 | 0.00 | 63 | 1006.0 |
| 20260505022517 | 18 | 214 | 1.6 | 4.8 | 0.00 | 0.00 | 0.00 | 64 | 1006.0 |
| 20260505022013 | 18 | 214 | 1.6 | 6.4 | 0.00 | 0.00 | 0.00 | 64 | 1006.0 |
| 20260505021537 | 18 | 157 | 0.0 | 6.4 | 0.00 | 0.00 | 0.00 | 64 | 1006.0 |
| 20260505021011 | 18 | 227 | 1.6 | 6.4 | 0.00 | 0.00 | 0.00 | 65 | 1006.0 |
| 20260505020509 | 18 | 137 | 0.0 | 4.8 | 0.00 | 0.00 | 0.00 | 65 | 1006.0 |
| 20260505020032 | 18 | 0 | 0.0 | 4.8 | 0.00 | 0.00 | 0.00 | 65 | 1005.9 |
| 20260505015512 | 18 | 0 | 0.0 | 4.8 | 0.00 | 0.00 | 0.00 | 65 | 1006.0 |
| 20260505015012 | 18 | 187 | 0.0 | 4.8 | 0.00 | 0.00 | 0.00 | 65 | 1006.0 |
| 20260505014536 | 18 | 210 | 1.6 | 4.8 | 0.00 | 0.00 | 0.00 | 64 | 1006.0 |
| 20260505014009 | 18 | 200 | 0.0 | 4.8 | 0.00 | 0.00 | 0.00 | 64 | 1006.0 |
| 20260505013517 | 18 | 215 | 0.0 | 4.8 | 0.00 | 0.00 | 0.00 | 63 | 1005.9 |
| 20260505013030 | 18 | 132 | 1.6 | 4.8 | 0.00 | 0.00 | 0.00 | 63 | 1005.8 |
| 20260505012511 | 18 | 177 | 0.0 | 3.2 | 0.00 | 0.00 | 0.00 | 63 | 1005.7 |
| 20260505012015 | 18 | 212 | 1.6 | 3.2 | 0.00 | 0.00 | 0.00 | 62 | 1005.6 |
| 20260505011527 | 19 | 0 | 0.0 | 3.2 | 0.00 | 0.00 | 0.00 | 62 | 1005.6 |
| 20260505011012 | 19 | 0 | 0.0 | 3.2 | 0.00 | 0.00 | 0.00 | 61 | 1005.6 |
| 20260505010513 | 19 | 0 | 0.0 | 3.2 | 0.00 | 0.00 | 0.00 | 60 | 1005.6 |
| 20260505010031 | 20 | 136 | 0.0 | 4.8 | 0.00 | 0.00 | 0.00 | 59 | 1005.6 |
| 20260505005509 | 20 | 220 | 1.6 | 4.8 | 0.00 | 0.00 | 0.00 | 58 | 1005.6 |
| 20260505005010 | 20 | 202 | 1.6 | 4.8 | 0.00 | 0.00 | 0.00 | 58 | 1005.7 |
| 20260505004541 | 20 | 204 | 1.6 | 4.8 | 0.00 | 0.00 | 0.00 | 57 | 1005.7 |
| 20260505004014 | 20 | 192 | 0.0 | 4.8 | 0.00 | 0.00 | 0.00 | 56 | 1005.7 |
| 20260505003516 | 20 | 0 | 1.6 | 8.0 | 0.00 | 0.00 | 0.00 | 55 | 1005.6 |
| 20260505003028 | 21 | 245 | 1.6 | 8.0 | 0.00 | 0.00 | 0.00 | 54 | 1005.6 |
| 20260505002515 | 21 | 0 | 1.6 | 6.4 | 0.00 | 0.00 | 0.00 | 54 | 1005.7 |
| 20260505002011 | 21 | 190 | 1.6 | 6.4 | 0.00 | 0.00 | 0.00 | 53 | 1005.6 |
| 20260505001534 | 21 | 133 | 0.0 | 6.4 | 0.00 | 0.00 | 0.00 | 52 | 1005.6 |
| 20260505001012 | 21 | 219 | 1.6 | 11.3 | 0.00 | 0.00 | 0.00 | 51 | 1005.5 |
| 20260505000509 | 22 | 249 | 1.6 | 11.3 | 0.00 | 0.00 | 0.00 | 51 | 1005.5 |
| 20260505000037 | 22 | 207 | 3.2 | 11.3 | 0.00 | 0.00 | 0.00 | 50 | 1005.5 |
| 20260504235512 | 22 | 212 | 3.2 | 11.3 | 0.00 | 0.00 | 0.00 | 50 | 1005.6 |
| 20260504235012 | 22 | 151 | 1.6 | 9.7 | 0.00 | 0.00 | 0.00 | 49 | 1005.7 |
| 20260504234531 | 22 | 0 | 1.6 | 11.3 | 0.00 | 0.00 | 0.00 | 49 | 1005.7 |
| 20260504234011 | 22 | 259 | 3.2 | 17.7 | 0.00 | 0.00 | 0.00 | 49 | 1005.8 |
| 20260504233510 | 22 | 203 | 4.8 | 17.7 | 0.00 | 0.00 | 0.00 | 48 | 1005.7 |
| 20260504233029 | 22 | 236 | 4.8 | 17.7 | 0.00 | 0.00 | 0.00 | 49 | 1005.7 |
| 20260504232511 | 22 | 212 | 3.2 | 14.5 | 0.00 | 0.00 | 0.00 | 50 | 1005.8 |
| 20260504232012 | 22 | 205 | 4.8 | 12.9 | 0.00 | 0.00 | 0.00 | 51 | 1005.8 |
| 20260504231540 | 22 | 212 | 3.2 | 9.7 | 0.00 | 0.00 | 0.00 | 51 | 1005.9 |
| 20260504231014 | 22 | 238 | 1.6 | 9.7 | 0.00 | 0.00 | 0.00 | 50 | 1005.8 |
| 20260504230513 | 22 | 247 | 1.6 | 14.5 | 0.00 | 0.00 | 0.00 | 50 | 1005.9 |
| 20260504230028 | 22 | 118 | 4.8 | 14.5 | 0.00 | 0.00 | 0.00 | 49 | 1006.0 |
| 20260504225511 | 22 | 251 | 3.2 | 12.9 | 0.00 | 0.00 | 0.00 | 49 | 1006.1 |
| 20260504225012 | 22 | 241 | 3.2 | 19.3 | 0.00 | 0.00 | 0.00 | 49 | 1006.3 |
| 20260504224528 | 22 | 266 | 4.8 | 19.3 | 0.00 | 0.00 | 0.00 | 48 | 1006.4 |
| 20260504224016 | 22 | 148 | 4.8 | 27.4 | 0.00 | 0.00 | 0.00 | 48 | 1006.5 |
| 20260504223514 | 22 | 245 | 6.4 | 27.4 | 0.00 | 0.00 | 0.00 | 48 | 1006.6 |
| 20260504223030 | 22 | 249 | 1.6 | 11.3 | 0.00 | 0.00 | 0.00 | 48 | 1006.6 |
| 20260504222513 | 22 | 238 | 3.2 | 11.3 | 0.00 | 0.00 | 0.00 | 50 | 1006.6 |
| 20260504222010 | 22 | 254 | 3.2 | 11.3 | 0.00 | 0.00 | 0.00 | 52 | 1006.6 |
| 20260504221530 | 21 | 135 | 1.6 | 6.4 | 0.00 | 0.00 | 0.00 | 54 | 1006.7 |
| 20260504221012 | 21 | 251 | 1.6 | 14.5 | 0.00 | 0.00 | 0.00 | 53 | 1006.6 |
| 20260504220512 | 21 | 239 | 4.8 | 16.1 | 0.00 | 0.00 | 0.00 | 53 | 1006.7 |
| 20260504220032 | 21 | 233 | 3.2 | 19.3 | 0.00 | 0.00 | 0.00 | 53 | 1006.8 |
| 20260504215512 | 21 | 243 | 6.4 | 19.3 | 0.00 | 0.00 | 0.00 | 52 | 1006.8 |
| 20260504215012 | 22 | 190 | 1.6 | 14.5 | 0.00 | 0.00 | 0.00 | 51 | 1006.9 |
| 20260504214531 | 22 | 249 | 3.2 | 14.5 | 0.00 | 0.00 | 0.00 | 52 | 1007.0 |
| 20260504214011 | 21 | 234 | 3.2 | 22.5 | 0.00 | 0.00 | 0.00 | 51 | 1007.0 |
| 20260504213511 | 22 | 171 | 4.8 | 22.5 | 0.00 | 0.00 | 0.00 | 50 | 1007.1 |
| 20260504213030 | 22 | 97 | 6.4 | 19.3 | 0.00 | 0.00 | 0.00 | 49 | 1007.2 |
| 20260504212514 | 22 | 243 | 3.2 | 16.1 | 0.00 | 0.00 | 0.00 | 49 | 1007.0 |
| 20260504212015 | 22 | 246 | 4.8 | 17.7 | 0.00 | 0.00 | 0.00 | 49 | 1007.0 |
| 20260504211531 | 22 | 238 | 3.2 | 17.7 | 0.00 | 0.00 | 0.00 | 49 | 1006.7 |
| 20260504211009 | 22 | 231 | 3.2 | 9.7 | 0.00 | 0.00 | 0.00 | 50 | 1006.6 |
| 20260504210511 | 21 | 265 | 3.2 | 20.9 | 0.00 | 0.00 | 0.00 | 51 | 1006.6 |
| 20260504210043 | 21 | 243 | 3.2 | 20.9 | 0.00 | 0.00 | 0.00 | 51 | 1006.6 |
| 20260504205512 | 21 | 252 | 3.2 | 20.9 | 0.00 | 0.00 | 0.00 | 51 | 1006.6 |
| 20260504205012 | 21 | 250 | 3.2 | 12.9 | 0.00 | 0.00 | 0.00 | 51 | 1006.7 |
| 20260504204528 | 21 | 248 | 3.2 | 16.1 | 0.00 | 0.00 | 0.00 | 52 | 1006.6 |
| 20260504204011 | 21 | 278 | 4.8 | 16.1 | 0.00 | 0.00 | 0.00 | 52 | 1007.0 |
| 20260504203512 | 21 | 238 | 6.4 | 16.1 | 0.00 | 0.00 | 0.00 | 52 | 1007.4 |
| 20260504203033 | 22 | 154 | 6.4 | 16.1 | 0.00 | 0.00 | 0.00 | 52 | 1007.1 |
| 20260504202513 | 22 | 95 | 4.8 | 14.5 | 0.00 | 0.00 | 0.00 | 51 | 1007.2 |
| 20260504202013 | 22 | 238 | 6.4 | 22.5 | 0.00 | 0.00 | 0.00 | 50 | 1007.7 |
| 20260504201531 | 22 | 247 | 6.4 | 22.5 | 0.00 | 0.00 | 0.00 | 49 | 1007.7 |
| 20260504201012 | 22 | 127 | 4.8 | 19.3 | 0.00 | 0.00 | 0.00 | 49 | 1007.9 |
| 20260504200514 | 22 | 200 | 6.4 | 19.3 | 0.00 | 0.00 | 0.00 | 48 | 1007.9 |
| 20260504200028 | 23 | 267 | 4.8 | 19.3 | 0.00 | 0.00 | 0.00 | 47 | 1007.9 |
| 20260504195512 | 23 | 157 | 6.4 | 17.7 | 0.00 | 0.00 | 0.00 | 46 | 1007.8 |
| 20260504195012 | 23 | 214 | 4.8 | 27.4 | 0.00 | 0.00 | 0.00 | 46 | 1007.8 |
| 20260504194542 | 23 | 244 | 8.0 | 27.4 | 0.00 | 0.00 | 0.00 | 46 | 1007.6 |
| 20260504194012 | 24 | 247 | 6.4 | 17.7 | 0.00 | 0.00 | 0.00 | 45 | 1007.6 |
| 20260504193512 | 23 | 253 | 6.4 | 22.5 | 0.00 | 0.00 | 0.00 | 46 | 1007.8 |
| 20260504193030 | 23 | 240 | 6.4 | 22.5 | 0.00 | 0.00 | 0.00 | 46 | 1007.8 |
| 20260504192511 | 24 | 248 | 4.8 | 12.9 | 0.00 | 0.00 | 0.00 | 45 | 1007.6 |
| 20260504192011 | 23 | 230 | 3.2 | 12.9 | 0.00 | 0.00 | 0.00 | 45 | 1007.4 |
| 20260504191535 | 24 | 82 | 4.8 | 14.5 | 0.00 | 0.00 | 0.00 | 44 | 1007.4 |
| 20260504191013 | 24 | 143 | 4.8 | 14.5 | 0.00 | 0.00 | 0.00 | 44 | 1007.5 |
| 20260504190513 | 25 | 252 | 3.2 | 19.3 | 0.00 | 0.00 | 0.00 | 44 | 1007.5 |
| 20260504190032 | 24 | 144 | 3.2 | 19.3 | 0.00 | 0.00 | 0.00 | 45 | 1007.3 |
| 20260504185511 | 23 | 117 | 6.4 | 22.5 | 0.00 | 0.00 | 0.00 | 46 | 1007.4 |
| 20260504185010 | 24 | 181 | 6.4 | 22.5 | 0.00 | 0.00 | 0.00 | 44 | 1007.4 |
| 20260504184537 | 24 | 215 | 8.0 | 22.5 | 0.00 | 0.00 | 0.00 | 44 | 1007.4 |
| 20260504184010 | 24 | 153 | 8.0 | 17.7 | 0.00 | 0.00 | 0.00 | 45 | 1007.3 |
| 20260504183513 | 23 | 262 | 4.8 | 22.5 | 0.00 | 0.00 | 0.00 | 46 | 1007.4 |
| 20260504183031 | 23 | 226 | 3.2 | 22.5 | 0.00 | 0.00 | 0.00 | 45 | 1007.5 |
| 20260504182509 | 23 | 226 | 4.8 | 17.7 | 0.00 | 0.00 | 0.00 | 47 | 1007.6 |
| 20260504182012 | 23 | 266 | 3.2 | 9.7 | 0.00 | 0.00 | 0.00 | 46 | 1007.6 |
| 20260504181530 | 23 | 239 | 3.2 | 24.1 | 0.00 | 0.00 | 0.00 | 46 | 1007.7 |
| 20260504181017 | 23 | 205 | 4.8 | 24.1 | 0.00 | 0.00 | 0.00 | 48 | 1007.5 |
| 20260504180512 | 23 | 64 | 9.7 | 24.1 | 0.00 | 0.00 | 0.00 | 47 | 1007.6 |
| 20260504180033 | 23 | 22 | 4.8 | 14.5 | 0.00 | 0.00 | 0.00 | 48 | 1007.6 |
| 20260504175510 | 23 | 229 | 4.8 | 14.5 | 0.00 | 0.00 | 0.00 | 46 | 1007.7 |
| 20260504175012 | 23 | 122 | 3.2 | 9.7 | 0.00 | 0.00 | 0.00 | 46 | 1007.8 |
| 20260504174530 | 23 | 145 | 1.6 | 11.3 | 0.00 | 0.00 | 0.00 | 48 | 1007.8 |
| 20260504174010 | 23 | 297 | 4.8 | 12.9 | 0.00 | 0.00 | 0.00 | 47 | 1007.9 |
| 20260504173513 | 23 | 191 | 3.2 | 20.9 | 0.00 | 0.00 | 0.00 | 47 | 1007.8 |
| 20260504173035 | 23 | 209 | 3.2 | 20.9 | 0.00 | 0.00 | 0.00 | 49 | 1007.8 |
| 20260504172512 | 22 | 139 | 4.8 | 20.9 | 0.00 | 0.00 | 0.00 | 49 | 1007.8 |
| 20260504172011 | 22 | 204 | 6.4 | 17.7 | 0.00 | 0.00 | 0.00 | 47 | 1007.9 |
| 20260504171532 | 22 | 171 | 6.4 | 17.7 | 0.00 | 0.00 | 0.00 | 49 | 1007.9 |
| 20260504171014 | 22 | 274 | 4.8 | 17.7 | 0.00 | 0.00 | 0.00 | 47 | 1007.9 |
| 20260504170513 | 22 | 122 | 6.4 | 22.5 | 0.00 | 0.00 | 0.00 | 49 | 1008.0 |